When you browse on this site, cookies collect data to enhance your experience and personalize the content and advertising you see.
Visit our Privacy Policy to learn more. By continuing to use the site, you agree to this use of cookies and data.
  • Em Portugal
  • Lista de países
  • Para 7 dias
  • Temperatura da água
  • Mapa do tempo
  • Widgets de tempo
  • user-avatar
    Iniciar Sessão

    Previsão horária em Motril

    Hoje, 15 Dezembro, Domingo

    Tempo Temperatura Precipitação Vento Pressão Humidade
    00:00 +14°C° 0 mm 3 m/s 759 mmHg 57%
    01:00 +13°C° 0 mm 3 m/s 759 mmHg 56%
    02:00 +13°C° 0 mm 3 m/s 759 mmHg 56%
    03:00 +13°C° 0 mm 3 m/s 759 mmHg 55%
    04:00 +13°C° 0 mm 3 m/s 758 mmHg 55%
    05:00 +14°C° 0 mm 2 m/s 758 mmHg 56%
    06:00 +14°C° 0 mm 2 m/s 758 mmHg 56%
    07:00 +15°C° 0 mm 2 m/s 758 mmHg 56%
    08:00 +16°C° 0 mm 2 m/s 758 mmHg 57%
    09:00 +18°C° 0 mm 1 m/s 758 mmHg 57%
    10:00 +18°C° 0 mm 2 m/s 758 mmHg 54%
    11:00 +19°C° 0 mm 2 m/s 757 mmHg 50%
    12:00 +20°C° 0 mm 2 m/s 757 mmHg 47%
    13:00 +20°C° 0 mm 2 m/s 756 mmHg 49%
    14:00 +20°C° 0 mm 2 m/s 756 mmHg 50%
    15:00 +20°C° 0 mm 2 m/s 755 mmHg 52%
    16:00 +20°C° 0 mm 1 m/s 755 mmHg 55%
    17:00 +18°C° 0 mm 1 m/s 755 mmHg 57%
    18:00 +16°C° 0 mm 1 m/s 755 mmHg 60%
    19:00 +16°C° 0 mm 1 m/s 755 mmHg 60%
    20:00 +16°C° 0 mm 1 m/s 755 mmHg 61%
    21:00 +16°C° 0 mm 1 m/s 755 mmHg 61%
    22:00 +16°C° 0 mm 1 m/s 754 mmHg 61%
    23:00 +15°C° 0 mm 1 m/s 754 mmHg 61%

    Amanhã, 16 Dezembro, Segunda-feira

    Tempo Temperatura Precipitação Vento Pressão Humidade
    00:00 +15°C° 0 mm 1 m/s 753 mmHg 61%
    01:00 +15°C° 0 mm 1 m/s 753 mmHg 58%
    02:00 +15°C° 0 mm 1 m/s 752 mmHg 56%
    03:00 +15°C° 0 mm 1 m/s 752 mmHg 54%
    04:00 +15°C° 0 mm 1 m/s 751 mmHg 53%
    05:00 +15°C° 0 mm 2 m/s 750 mmHg 53%
    06:00 +15°C° 0 mm 2 m/s 750 mmHg 53%
    07:00 +14°C° 0 mm 3 m/s 750 mmHg 53%
    08:00 +15°C° 0 mm 4 m/s 749 mmHg 53%
    09:00 +17°C° 0 mm 4 m/s 749 mmHg 53%
    10:00 +17°C° 0 mm 5 m/s 748 mmHg 52%
    11:00 +19°C° 0 mm 5 m/s 747 mmHg 50%
    12:00 +19°C° 0 mm 5 m/s 747 mmHg 49%
    13:00 +19°C° 0 mm 5 m/s 746 mmHg 49%
    14:00 +19°C° 0 mm 5 m/s 745 mmHg 49%
    15:00 +19°C° 0 mm 5 m/s 744 mmHg 48%
    16:00 +16°C° 0.3 mm 5 m/s 745 mmHg 60%
    17:00 +15°C° 0.3 mm 5 m/s 745 mmHg 71%
    18:00 +13°C° 0.3 mm 6 m/s 745 mmHg 82%
    19:00 +13°C° 0.5 mm 6 m/s 745 mmHg 84%
    20:00 +12°C° 0.5 mm 7 m/s 746 mmHg 85%
    21:00 +11°C° 0.5 mm 7 m/s 746 mmHg 87%
    22:00 +11°C° 1 mm 8 m/s 746 mmHg 87%
    23:00 +11°C° 1 mm 8 m/s 746 mmHg 87%

    Depois de amanhã, 17 Dezembro, Terça-feira

    Tempo Temperatura Precipitação Vento Pressão Humidade
    00:00 +11°C° 1 mm 8 m/s 746 mmHg 87%
    01:00 +11°C° 0.9 mm 7 m/s 746 mmHg 88%
    02:00 +10°C° 0.9 mm 6 m/s 746 mmHg 89%
    03:00 +10°C° 0.9 mm 6 m/s 746 mmHg 90%
    04:00 +10°C° 0.1 mm 6 m/s 746 mmHg 86%
    05:00 +9°C° 0.1 mm 7 m/s 747 mmHg 83%
    06:00 +9°C° 0.1 mm 8 m/s 747 mmHg 80%
    07:00 +9°C° 0 mm 8 m/s 748 mmHg 78%
    08:00 +9°C° 0 mm 8 m/s 748 mmHg 76%
    09:00 +9°C° 0 mm 8 m/s 749 mmHg 74%
    10:00 +9°C° 0 mm 8 m/s 749 mmHg 69%
    11:00 +10°C° 0 mm 8 m/s 750 mmHg 64%
    12:00 +10°C° 0 mm 8 m/s 750 mmHg 59%
    13:00 +10°C° 0 mm 8 m/s 751 mmHg 60%
    14:00 +10°C° 0 mm 8 m/s 751 mmHg 61%
    15:00 +10°C° 0 mm 9 m/s 752 mmHg 62%
    16:00 +9°C° 0 mm 8 m/s 753 mmHg 65%
    17:00 +9°C° 0 mm 8 m/s 753 mmHg 67%
    18:00 +7°C° 0 mm 8 m/s 754 mmHg 70%
    19:00 +7°C° 0 mm 8 m/s 755 mmHg 71%
    20:00 +8°C° 0 mm 7 m/s 755 mmHg 73%
    21:00 +8°C° 0 mm 7 m/s 756 mmHg 74%
    22:00 +8°C° 0 mm 7 m/s 756 mmHg 74%
    23:00 +6°C° 0 mm 7 m/s 757 mmHg 74%

    18 Dezembro, Quarta-feira

    Tempo Temperatura Precipitação Vento Pressão Humidade
    00:00 +7°C° 0 mm 6 m/s 757 mmHg 74%
    01:00 +7°C° 0 mm 6 m/s 757 mmHg 74%
    02:00 +7°C° 0 mm 6 m/s 757 mmHg 74%
    03:00 +7°C° 0 mm 6 m/s 757 mmHg 73%
    04:00 +7°C° 0 mm 6 m/s 757 mmHg 70%
    05:00 +7°C° 0 mm 6 m/s 758 mmHg 66%
    06:00 +7°C° 0 mm 6 m/s 758 mmHg 63%
    07:00 +8°C° 0 mm 6 m/s 758 mmHg 60%
    08:00 +9°C° 0 mm 6 m/s 758 mmHg 58%
    09:00 +10°C° 0 mm 5 m/s 759 mmHg 56%
    10:00 +12°C° 0 mm 5 m/s 759 mmHg 60%
    11:00 +14°C° 0 mm 5 m/s 759 mmHg 65%
    12:00 +15°C° 0 mm 5 m/s 759 mmHg 70%
    13:00 +15°C° 0 mm 6 m/s 758 mmHg 73%
    14:00 +15°C° 0 mm 6 m/s 758 mmHg 76%
    15:00 +15°C° 0 mm 7 m/s 758 mmHg 78%
    16:00 +14°C° 0 mm 6 m/s 758 mmHg 81%
    17:00 +14°C° 0 mm 6 m/s 758 mmHg 84%
    18:00 +13°C° 0 mm 6 m/s 758 mmHg 87%
    19:00 +13°C° 0 mm 6 m/s 758 mmHg 86%
    20:00 +13°C° 0 mm 5 m/s 758 mmHg 85%
    21:00 +13°C° 0 mm 5 m/s 759 mmHg 84%
    22:00 +13°C° 0 mm 5 m/s 758 mmHg 84%
    23:00 +13°C° 0 mm 5 m/s 758 mmHg 85%

    19 Dezembro, Quinta-feira

    Tempo Temperatura Precipitação Vento Pressão Humidade
    00:00 +13°C° 0 mm 5 m/s 758 mmHg 86%
    01:00 +14°C° 0 mm 5 m/s 758 mmHg 88%
    02:00 +14°C° 0 mm 5 m/s 757 mmHg 90%
    03:00 +14°C° 0 mm 5 m/s 757 mmHg 91%
    04:00 +14°C° 0.1 mm 5 m/s 756 mmHg 92%
    05:00 +14°C° 0.1 mm 5 m/s 756 mmHg 93%
    06:00 +14°C° 0.1 mm 6 m/s 756 mmHg 94%
    07:00 +14°C° 2.6 mm 5 m/s 756 mmHg 95%
    08:00 +14°C° 2.6 mm 5 m/s 757 mmHg 96%
    09:00 +14°C° 2.6 mm 5 m/s 757 mmHg 97%
    10:00 +14°C° 1.1 mm 6 m/s 757 mmHg 95%
    11:00 +15°C° 1.1 mm 6 m/s 757 mmHg 93%
    12:00 +16°C° 1.1 mm 7 m/s 757 mmHg 91%
    13:00 +16°C° 0.1 mm 7 m/s 757 mmHg 87%
    14:00 +16°C° 0.1 mm 7 m/s 756 mmHg 84%
    15:00 +17°C° 0.1 mm 7 m/s 756 mmHg 80%
    16:00 +16°C° 0.1 mm 7 m/s 756 mmHg 83%
    17:00 +15°C° 0.1 mm 6 m/s 756 mmHg 86%
    18:00 +14°C° 0.1 mm 6 m/s 756 mmHg 89%
    19:00 +14°C° 0.3 mm 7 m/s 755 mmHg 91%
    20:00 +15°C° 0.3 mm 7 m/s 755 mmHg 93%
    21:00 +15°C° 0.3 mm 8 m/s 755 mmHg 95%
    22:00 +15°C° 0.6 mm 9 m/s 755 mmHg 95%
    23:00 +16°C° 0.6 mm 10 m/s 754 mmHg 95%

    20 Dezembro, Sexta-feira

    Tempo Temperatura Precipitação Vento Pressão Humidade
    00:00 +16°C° 0.6 mm 11 m/s 754 mmHg 95%
    01:00 +15°C° 0.6 mm 12 m/s 753 mmHg 95%
    02:00 +15°C° 0.6 mm 12 m/s 752 mmHg 94%
    03:00 +15°C° 0.6 mm 13 m/s 751 mmHg 94%
    04:00 +15°C° 0.5 mm 13 m/s 750 mmHg 93%
    05:00 +17°C° 0.5 mm 14 m/s 750 mmHg 93%
    06:00 +17°C° 0.5 mm 14 m/s 749 mmHg 93%
    07:00 +17°C° 1.5 mm 14 m/s 750 mmHg 94%
    08:00 +17°C° 1.5 mm 14 m/s 750 mmHg 95%
    09:00 +17°C° 1.5 mm 14 m/s 751 mmHg 96%
    10:00 +15°C° 1.3 mm 13 m/s 751 mmHg 94%
    11:00 +16°C° 1.3 mm 11 m/s 752 mmHg 93%
    12:00 +16°C° 1.3 mm 10 m/s 752 mmHg 91%
    13:00 +16°C° 0.1 mm 10 m/s 752 mmHg 86%
    14:00 +16°C° 0.1 mm 10 m/s 752 mmHg 81%
    15:00 +16°C° 0.1 mm 10 m/s 752 mmHg 76%
    16:00 +16°C° 0 mm 10 m/s 753 mmHg 77%
    17:00 +15°C° 0 mm 9 m/s 754 mmHg 78%
    18:00 +13°C° 0 mm 9 m/s 754 mmHg 80%
    19:00 +13°C° 0 mm 8 m/s 755 mmHg 80%
    20:00 +13°C° 0 mm 8 m/s 756 mmHg 80%
    21:00 +14°C° 0 mm 7 m/s 756 mmHg 80%
    22:00 +14°C° 0 mm 7 m/s 757 mmHg 79%
    23:00 +14°C° 0 mm 7 m/s 757 mmHg 79%
    Mostrar mais